Location: Rivarolo Mantovano
(45.0667°N, 10.4333°E)
Time: 01:43:05
(UTC+00:00)

Daily predictions for brighter satellites

Satellite Brightness Start Highest point End
(mag) Time Altitude Azimuth Time Altitude Azimuth Time Altitude Azimuth
Cosmos 1464 Rocket 3.9 00:08:47 70° WSW 00:09:19 74° W 00:15:34 10° N
Cosmos 2219 Rocket 2.3 00:06:02 10° NNW 00:11:13 65° W 00:11:13 65° W
Lacrosse 4 Rocket 2.6 00:13:01 38° NNW 00:13:01 38° NNW 00:16:24 10° NNE
Cosmos 1354 Rocket 4.0 00:16:38 74° WNW 00:16:38 74° WNW 00:21:53 10° NNE
Cosmos 968 Rocket 4.2 00:19:13 41° WNW 00:19:21 41° WNW 00:24:13 10° N
SL-4 R/B 3.9 00:22:19 22° NE 00:22:19 22° NE 00:24:06 10° ENE
SL-16 R/B 4.2 00:18:21 10° N 00:22:59 25° NE 00:27:35 10° ESE
COSMOS 2428 3.0 00:24:11 10° NW 00:29:12 52° W 00:29:12 52° W
SL-16 R/B 3.0 00:28:36 36° SE 00:31:02 58° ENE 00:37:10 10° N
BREEZE-M TANK 4.0 00:36:08 28° E 00:36:08 28° E 00:38:23 10° E
Nadezhda 4 Rocket 3.9 00:28:25 10° NNW 00:34:41 67° W 00:35:18 63° SW
Cosmos 2360 Rocket 4.2 00:31:34 10° WNW 00:33:24 15° W 00:33:24 15° W
NPP 4.5 00:31:00 10° NNE 00:36:03 40° E 00:36:53 37° ESE
Cosmos 2034 Rocket 4.0 00:35:41 59° WSW 00:36:29 65° W 00:42:45 10° N
CZ-2D R/B 2.7 00:32:00 10° NNE 00:37:19 48° E 00:38:05 45° SE
Okean 2 Rocket 3.5 00:41:46 58° NNW 00:41:46 58° NNW 00:45:37 10° N
GEOS 3 Rocket 3.7 00:36:39 10° NE 00:42:04 75° NW 00:42:46 65° WSW
ADEOS II 3.8 00:41:29 10° NE 00:45:40 23° E 00:47:27 20° ESE
Cosmos 2297 Rocket 2.3 00:45:36 56° SE 00:46:11 59° ESE 00:51:44 10° NNE
Cosmos 2219 3.1 00:45:50 64° SSE 00:46:21 69° ESE 00:51:57 10° NNE
Cosmos 1092 Rocket 3.9 00:40:33 10° N 00:46:50 85° W 00:48:01 61° S
Cosmos 1980 3.6 00:43:12 10° NNW 00:48:55 89° SW 00:49:51 64° SSE
Cosmos 1777 Rocket 3.8 00:49:00 79° S 00:49:19 85° ESE 00:54:38 10° NNE
Cosmos 2333 Rocket 3.4 00:44:18 10° NW 00:48:11 29° W 00:48:11 29° W
Helios 1B rocket 3.8 00:45:49 10° N 00:48:49 30° NW 00:48:49 30° NW
UNK 3.8 00:52:22 70° ESE 00:52:41 73° ENE 00:57:22 10° N
Cosmos 44 Rocket 4.0 00:51:29 10° NW 00:55:08 43° WNW 00:55:08 43° WNW
Cosmos 1300 Rocket 4.2 00:57:53 44° NW 00:57:53 44° NW 01:01:28 10° N
Cosmos 2237 Rocket 2.0 00:53:17 10° NNW 00:58:58 81° WSW 00:59:51 64° S
DELTA 2 DEB (DPAF) 4.2 01:00:27 66° NW 01:00:27 66° NW 01:04:27 10° NNW
Okean 1 Rocket 3.2 01:01:02 64° E 01:01:02 64° E 01:05:19 10° NNE
CZ-4C R/B 4.0 01:04:18 43° N 01:04:18 43° N 01:06:48 10° N
Cosmos 1626 3.9 01:00:25 10° NNE 01:03:39 27° ENE 01:04:26 25° E
CZ-4B R/B 4.1 00:59:30 10° NNE 01:04:02 41° E 01:04:55 37° SE
IKONOS-2 4.4 01:10:36 80° E 01:10:41 81° ENE 01:14:56 10° NNW
Cosmos 2151 Rocket 4.2 01:12:29 43° WNW 01:12:29 43° WNW 01:16:27 10° N
ATLAS 3B CENTAUR R/B 4.4 01:13:44 30° S 01:13:44 30° S 01:19:57 10° SE
Timation 2 Rocket 4.3 01:14:34 41° WSW 01:16:20 54° WNW 01:22:16 10° NNE
In-Cosmos 22 4.5 01:13:33 10° NNW 01:18:53 46° W 01:19:15 46° WSW
Meteor 1-15 Rocket 4.2 01:22:53 52° SW 01:24:11 71° WNW 01:29:49 10° N
Cosmos 1805 3.2 01:24:26 76° NNW 01:24:26 76° NNW 01:28:07 10° N
SJ 16-02 1.8 01:25:10 47° SE 01:25:52 53° ESE 01:30:12 10° NNE
SL-14 R/B 4.0 01:23:33 10° N 01:27:23 48° ENE 01:28:24 38° ESE
DNEPR-1 R/B 3.9 01:22:23 10° NW 01:28:13 88° NE 01:31:06 25° SE
ERBS 3.1 01:25:07 10° NW 01:28:20 49° NE 01:31:32 10° ESE
Cosmos 2227 Rocket 2.2 01:33:34 46° SW 01:35:13 70° WNW 01:40:54 10° NNE
Cosmos 1538 Rocket 4.3 01:30:52 10° NNW 01:35:45 44° WSW 01:35:51 43° WSW
Cosmos 1455 Rocket 4.0 01:34:24 30° SE 01:36:02 44° E 01:40:16 10° NNE
Resurs 1-4 Rocket 2.4 01:32:58 10° N 01:38:05 52° WNW 01:39:24 41° WSW
Cosmos 2180 Rocket 4.4 01:36:44 37° S 01:39:24 87° E 01:45:34 10° N
Cosmos 1674 3.7 01:37:12 10° NNW 01:39:47 32° WNW 01:39:47 32° WNW
Cosmos 1733 3.1 01:42:54 70° W 01:43:00 70° W 01:46:50 10° N
Cosmos 1892 Rocket 3.7 01:39:49 10° N 01:44:18 75° E 01:46:08 35° SSE
Cosmos 2279 Rocket 4.0 01:44:47 38° SSW 01:47:08 66° W 01:53:19 10° N
Cosmos 1461 3.5 01:47:03 40° SSE 01:48:06 50° ESE 01:52:28 10° NE
USA 215 3.2 01:41:37 10° NE 01:48:13 86° SE 01:51:29 33° SW
COBE Rocket 3.7 01:47:33 46° SSW 01:48:52 69° W 01:53:30 10° NNW
SL-24 R/B 4.4 01:53:41 42° SSW 01:55:09 64° W 02:00:06 10° N
Cosmos 2082 3.6 01:53:29 38° SSW 01:55:45 82° WNW 02:01:24 10° NNE
Cosmos 1340 Rocket 3.6 01:54:19 28° SSE 01:56:01 47° E 01:59:51 10° NNE
SL-4 R/B 1.7 01:58:02 13° WNW 02:01:02 72° NNE 02:04:25 10° ESE
Cosmos 2112 Rocket 3.9 01:56:08 10° NNW 02:01:24 90° NE 02:06:36 10° SSE
Cosmos 1953 4.1 01:59:20 11° SSE 02:02:29 28° E 02:05:58 10° NNE
Meteor 1-24 Rocket 3.6 02:00:53 10° NNW 02:06:16 60° W 02:08:55 29° SSW
Cosmos 1726 3.7 02:04:07 15° SSE 02:06:33 31° E 02:09:52 10° NNE
CBERS-1 4.1 02:01:55 10° N 02:06:58 61° WNW 02:09:09 33° SW
SL-16 R/B 2.2 02:01:55 10° NNW 02:07:34 63° WSW 02:12:33 13° S
Meteor 2-5 Rocket 4.1 02:04:37 10° NNW 02:09:55 43° W 02:11:59 30° SW
Cosmos 1937 Rocket 3.8 02:06:56 24° S 02:10:04 63° ESE 02:15:20 10° NNE
H-2A R/B 3.7 02:09:52 10° SE 02:13:34 33° ENE 02:17:16 10° N
Cosmos 1898 Rocket 3.4 02:11:41 30° SSW 02:14:24 88° WNW 02:19:40 10° NNE
ARIANE 5 R/B 2.7 02:09:17 10° NNE 02:14:31 76° ESE 02:18:03 21° S
SL-16 R/B 3.6 02:13:42 24° WSW 02:15:00 25° W 02:20:05 10° NW
CZ-2D R/B 3.4 02:12:33 10° N 02:17:05 27° WNW 02:19:24 20° W
IDEFIX/ARIANE 42P 3.2 02:12:18 10° NNE 02:17:24 53° E 02:21:55 13° S
Cosmos 1680 Rocket 3.6 02:14:02 10° NNW 02:19:09 55° WSW 02:22:58 17° S
USA 267 3.3 02:13:41 10° ESE 02:20:14 82° NE 02:26:48 10° NW
NOSS 3-1 (C) 3.3 02:17:24 27° SSW 02:20:31 77° SE 02:26:48 10° NE
Cosmos 1544 Rocket 3.5 02:20:01 26° S 02:22:29 84° WNW 02:26:59 10° N
ADEOS II 2.5 02:20:33 10° N 02:25:37 49° WNW 02:28:23 25° SW
Cosmos 990 Rocket 4.0 02:23:20 27° SW 02:26:06 66° WNW 02:31:18 10° NNE
CZ-4C R/B 4.4 02:23:15 10° SE 02:26:13 35° ENE 02:29:16 10° N
Cosmos 1607 4.1 02:20:09 10° NW 02:26:24 53° WSW 02:32:38 10° SSE
Timation 1 Rocket 4.5 02:22:56 21° SSW 02:27:04 73° ESE 02:33:02 10° NNE
Cosmos 2263 Rocket 2.9 02:23:53 13° S 02:28:32 48° ESE 02:33:51 10° NE
IRS-1D 4.2 02:24:45 10° N 02:29:24 38° WNW 02:31:54 23° WSW
Cosmos 2297 Rocket 3.6 02:27:24 16° W 02:30:38 26° NW 02:35:18 10° N
Okean 1-7 Rocket 3.9 02:28:36 10° NNW 02:32:47 44° W 02:35:04 24° SSW
ERS-1 4.4 02:28:37 10° N 02:33:35 72° WNW 02:36:58 20° SSW
Meteor 2-10 4.3 02:29:20 13° S 02:34:09 76° E 02:39:46 10° NNE
IRS-1C 4.3 02:30:01 10° N 02:35:14 57° WNW 02:38:42 21° SW
NOSS 2-3 (D) 4.2 02:33:37 19° S 02:36:23 51° ESE 02:41:04 10° NE
Meteor 1-28 Rocket 3.5 02:36:21 24° SSW 02:38:16 45° W 02:41:57 10° NNW
Cosmos 1626 3.6 02:35:57 10° NW 02:38:43 20° W 02:38:56 20° W
Cosmos 2266 Rocket 4.3 02:33:39 10° NNW 02:39:45 49° W 02:45:02 13° SSW
Cosmos 2237 Rocket 4.1 02:40:15 10° WNW 02:41:37 11° W 02:41:37 11° W
Cosmos 1602 Rocket 3.6 02:37:52 10° N 02:42:16 80° E 02:46:36 10° S
Cosmos 1470 3.4 02:41:43 24° SW 02:43:30 38° WNW 02:47:15 10° N
CZ-2C R/B 4.1 02:41:32 10° NE 02:45:31 29° E 02:49:32 10° SSE
Cosmos 1603 3.9 02:41:23 10° NNW 02:47:10 78° ENE 02:52:52 10° SSE
SL-08 R/B 3.9 02:43:56 15° SSW 02:47:35 40° W 02:52:16 10° NNW
Meteor 2-21 Rocket 4.5 02:42:20 10° N 02:48:26 85° E 02:54:31 10° S
USA 229 DEB 3.7 02:48:34 17° SW 02:53:43 79° NW 03:00:39 10° NE
USA 229 3.6 02:48:39 17° SW 02:53:48 79° NW 03:00:42 10° NE
Helios 1B 4.5 02:49:37 10° S 02:53:57 78° WSW 02:58:19 10° NNW
Cosmos 2098 Rocket 4.3 02:50:25 10° NNW 02:54:48 34° W 02:59:34 12° SSW
Nadezhda 2 Rocket 4.4 02:51:36 10° N 02:57:52 79° W 03:04:00 10° S
Cosmos 2298 Rocket 4.5 02:57:53 10° S 03:03:07 63° ESE 03:08:24 10° NNE
ERBS 3.7 03:02:01 10° W 03:04:20 18° SW 03:06:38 10° S
NOSS 2-3 (C) 3.6 03:01:07 15° SW 03:04:35 87° WNW 03:09:36 10° NE
Meteor 2-14 Rocket 4.5 02:58:42 10° NNW 03:04:39 61° W 03:10:35 10° S
SJ 16-02 3.2 03:02:10 12° W 03:04:47 18° WNW 03:07:51 10° NNW
NOSS 3-1 (A) 3.3 03:00:07 14° SW 03:04:49 87° NW 03:11:13 10° NE
MSX 3.9 03:07:39 10° N 03:13:25 76° WNW 03:19:10 10° SSW
Cosmos 1943 3.1 03:08:45 10° NNW 03:14:23 78° WSW 03:19:59 10° SSE
PSLV R/B 3.9 03:10:03 10° NNE 03:14:26 67° ESE 03:18:47 10° S
Cosmos 1626 Rocket 4.2 03:11:10 10° NNW 03:15:04 34° W 03:18:57 10° SSW
Meteor 1-21 Rocket 4.4 03:13:37 10° NNW 03:18:57 48° W 03:24:13 10° SSW
Cosmos 2227 Rocket 4.3 03:17:13 10° WNW 03:20:21 15° NW 03:23:32 10° N
PAYLOAD A 4.3 03:15:24 10° NNE 03:20:49 78° ESE 03:26:03 10° S
deb Chang Zheng 4 4.5 03:17:03 10° NNE 03:21:18 50° E 03:25:32 10° S
SeaSat 1 2.5 03:17:01 10° NNE 03:21:59 83° WNW 03:26:55 10° SSW
Landsat 5 3.7 03:20:07 10° S 03:23:50 44° W 03:27:40 10° NNW
CZ-2C R/B 3.4 03:22:28 10° N 03:26:07 39° WNW 03:29:41 10° SW
USA 215 4.2 03:24:49 10° NE 03:30:53 42° NNW 03:36:56 10° W
Cosmos 1048 Rocket 4.0 03:25:54 10° NNW 03:31:04 90° NE 03:36:14 10° SSE
Meteor 1-11 4.4 03:25:15 10° N 03:31:04 84° E 03:36:47 10° SSE
FALCON 9 DEB 3.5 03:28:18 10° WNW 03:31:37 43° SW 03:34:55 10° SSE
ATLAS CENTAUR R/B 2.7 03:28:34 10° S 03:32:27 36° ESE 03:36:08 10° NE
Cosmos 1356 Rocket 4.1 03:28:27 10° S 03:32:36 58° E 03:36:42 10° NNE
Cosmos 1758 Rocket 3.6 03:28:53 10° NNW 03:33:08 58° W 03:37:21 10° S
ATLAS 3B CENTAUR R/B 4.2 03:28:24 10° WSW 03:33:51 17° SSW 03:37:30 10° S
ERS-2 2.8 03:31:47 10° SSW 03:35:07 34° W 03:38:28 10° NNW
Cosmos 2228 3.0 03:32:16 10° S 03:36:37 81° W 03:41:03 10° N
Cosmos 1953 3.7 03:35:36 10° SW 03:38:52 24° WNW 03:42:10 10° NNW
